Theta_e
325 328 327 328 329 329 330 334 340 341 342 344 346 346 344 345 347 347 346 344 344 343
321 321 321 324 325 325 328 328 334 336 338 340 342 345 345 343 343 345 347 347 347 344
317 319 320 321 322 322 325 328 331 331 332 336 339 341 345 345 342 341 344 345 346 348
315 318 319 320 321 322 325 326 327 329 329 330 333 339 340 341 342 343 340 339 340 345
314 315 315 317 319 321 323 326 327 328 328 327 328 332 335 335 338 338 340 340 336 335
313 312 314 316 318 320 321 322 326 327 327 326 325 327 329 330 332 335 337 338 336 334
310 311 312 314 316 316 316 318 320 323 325 325 324 324 326 329 330 332 333 335 336 337
311 312 312 312 313 314 315 316 317 318 320 323 323 320 321 325 326 326 327 329 331 334
311 311 312 313 313 313 315 315 315 315 316 318 317 307 303 310 324 325 325 324 327 330
310 310 311 312 312 312 313 315 315 315 315 316 318 305 300 303 320 322 324 324 324 323
309 310 311 312 312 312 313 313 313 314 315 315 315 305 301 300 317 319 321 323 324 325
309 309 309 309 311 313 312 313 313 314 314 315 315 305 300 304 316 315 317 319 321 323
309 310 310 311 311 312 313 312 312 313 315 312 314 306 301 304 313 314 313 316 318 310
310 310 311 312 312 312 312 312 312 312 314 314 313 314 302 298 311 311 311 312 313 314
Wind_Speed
12 7 7 7 6 4 4 5 6 6 6 6 4 3 6 7 7 7 7 8 7 7
9 9 7 6 5 2 4 5 6 8 8 7 6 4 2 2 4 6 8 8 8 8
8 8 7 6 8 8 6 6 6 6 6 7 8 7 6 2 2 3 3 5 9 10
10 9 7 7 7 7 7 5 4 5 5 6 6 7 6 6 5 3 3 4 6 10
8 7 8 8 7 7 8 7 6 5 5 5 6 5 6 6 6 6 6 4 3 7
9 2 7 9 9 8 8 9 8 6 6 7 6 6 6 6 6 6 6 5 4 6
5 4 4 4 6 7 8 7 9 9 7 6 6 7 7 7 8 8 7 6 5 5
5 5 5 6 7 8 8 8 8 9 8 7 6 6 7 6 6 6 7 8 7 6
6 6 6 6 6 6 7 7 7 7 8 8 5 6 7 7 6 6 6 6 6 7
8 8 7 7 7 7 7 8 9 9 8 9 9 7 7 8 7 7 7 7 6 7
9 9 9 9 8 7 6 7 7 8 9 9 8 6 6 8 8 7 8 8 8 8
9 10 11 11 10 9 7 8 8 8 8 8 9 7 3 6 8 8 10 9 9 9
10 10 10 11 12 9 7 9 8 9 9 9 10 7 7 3 7 8 9 10 10 9
9 9 11 10 8 8 9 8 9 9 10 11 8 9 8 1 7 8 7 8 9 8
Wind_Direction
54 47 49 48 60 51 49 45 30 33 41 36 54 182 217 235 243 251 250 230 224 232
57 65 66 61 61 46 48 43 28 24 22 23 22 21 28 245 259 247 257 262 253 244
41 31 31 32 30 29 21 17 20 22 20 22 18 10 2 360 266 235 251 249 251 248
23 21 26 22 15 16 10 12 11 6 16 27 20 14 3 353 345 272 217 234 275 267
48 10 359 2 358 13 8 7 359 356 5 26 30 21 7 1 347 328 311 277 248 266
39 343 3 353 332 7 10 358 0 6 357 357 5 14 4 354 356 353 328 331 259 252
7 346 359 302 321 358 1 359 354 2 352 351 357 11 7 3 355 355 352 347 328 295
1 340 352 358 347 342 339 348 338 346 346 348 351 16 355 352 352 349 344 342 342 340
343 335 336 337 342 334 335 336 328 332 335 331 331 29 358 335 333 332 329 334 340 339
324 315 326 327 317 320 326 329 337 330 321 313 312 355 346 333 317 310 309 311 323 321
319 318 319 312 312 318 318 314 308 307 306 312 304 302 317 317 295 297 299 300 302 302
314 313 314 312 315 310 299 302 303 304 303 296 297 308 312 311 305 299 293 292 292 288
309 310 309 307 303 303 294 294 301 303 304 301 297 308 302 327 304 299 298 294 283 248
304 308 305 302 294 293 292 295 294 300 299 300 301 303 302 184 306 302 305 296 294 294